Regional Weather Roundup
Issued by NWS

Home | Current Version | Previous Version | Graphics & Text | Print | Product List | Glossary On
Versions: 1 2 3 4 5 6 7 8 9 10 11 12 13 14 15 16 17 18 19 20 21 22 23 24 25 26 27 28 29 30 31 32 33 34 35 36 37 38 39 40 41 42 43 44 45 46 47 48 49 50
000
ASUS43 KOAX 280710
RWRNE

WEATHER ROUNDUP FOR NEBRASKA
NATIONAL WEATHER SERVICE OMAHA NE
200 AM CDT THU APR 28 2016

NOTES: SATELLITE DATA IS BEING USED TO AUGMENT CLOUD COVER ABOVE
       12000 FEET.
       "FAIR" INDICATES FEW OR NO CLOUDS BELOW 12,000 FEET WITH NO
       SIGNIFICANT WEATHER AND/OR OBSTRUCTIONS TO VISIBILITY.

  * THESE STATIONS DO NOT REPORT WEATHER SUCH AS RAIN...SNOW OR FOG.

NEZ001>004-019>022-054>056-280800-
NEBRASKA PANHANDLE

CITY           SKY/WX    TMP DP  RH WIND       PRES   REMARKS
SCOTTSBLUFF    CLOUDY    34  28  79 N7        29.94R WCI  28
ALLIANCE       CLOUDY    31  29  92 NW12      29.91S WCI  22
CHADRON        CLOUDY    32  30  92 N9        29.95R WCI  24
KIMBALL        CLEAR     31  29  95 N10       29.90R WCI  22
SIDNEY         CLEAR     31  27  85 N13       29.90S WCI  21
$$

NEZ057>060-069>072-079>082-280800-
SOUTHWEST NEBRASKA

CITY           SKY/WX    TMP DP  RH WIND       PRES   REMARKS
NORTH PLATTE   CLOUDY    33  30  88 W13       29.87R WCI  24
IMPERIAL       CLEAR     34  30  85 NW10      29.90S WCI  26
LEXINGTON      PTCLDY    35  32  87 NW21      29.83S WCI  24
MCCOOK         CLEAR     35  30  82 W10       29.88S WCI  27
OGALLALA       CLEAR     30  27  88 W7        29.90S WCI  23
$$

NEZ005>010-023>029-035>040-094-280800-
NORTH CENTRAL NEBRASKA

CITY           SKY/WX    TMP DP  RH WIND       PRES   REMARKS
VALENTINE      CLOUDY    34  32  92 NW13      29.87R FOG     WCI  25
AINSWORTH      LGT SNOW  37  37 100 NW14      29.83R WCI  28
BROKEN BOW     FLURRIES  35  33  92 NW17      29.81R WCI  25
O`NEILL        CLOUDY    41  40  95 N17       29.78R FOG
ORD            CLOUDY    39  38  96 NW17      29.77R WCI  30
THEDFORD       LGT SNOW  34  33  97 NW10      29.86R WCI  26
$$

NEZ041-046>049-061>064-073>077-083>087-280800-
SOUTH CENTRAL NEBRASKA

CITY           SKY/WX    TMP DP  RH WIND       PRES   REMARKS
GRAND ISLAND   CLOUDY    40  39  97 NW20      29.76R WCI  30
AURORA         CLOUDY    42  41  96 NW16G24   29.74R
HASTINGS       CLOUDY    39  36  89 NW20      29.76R WCI  29
HEBRON         CLOUDY    43  39  84 NW15G23   29.75R
HOLDREGE       CLEAR     36  32  85 W16G22    29.82R WCI  26
KEARNEY *      CLOUDY    37  34  87 NW21      29.79S WCI  27
YORK           CLOUDY    45  43  93 NW21      29.71R FOG
$$

NEZ011>018-030>034-042>045-280800-
NORTHEAST NEBRASKA

CITY           SKY/WX    TMP DP  RH WIND       PRES   REMARKS
NORFOLK        CLOUDY    43  41  93 N12       29.70R
ALBION         CLOUDY    44  42  94 N15       29.72R FOG
BLAIR          DRIZZLE   46  45  96 S7        29.62R
COLUMBUS *     CLOUDY    46  37  71 NW13      29.71R
FREMONT        CLOUDY    46  45  97 NW13      29.65R
TEKAMAH        CLOUDY    47  47 100 E5        29.63R
WAYNE          LGT RAIN  44  42  93 N14G20    29.71R
$$

NEZ050>053-065>068-078-088>093-280800-
SOUTHEAST NEBRASKA

CITY           SKY/WX    TMP DP  RH WIND       PRES   REMARKS
LINCOLN        CLOUDY    50  45  83 N14       29.67R
OMAHA EPPLEY   CLOUDY    47  44  90 S3        29.64R
BEATRICE       CLOUDY    45  43  92 W14       29.70R
FALLS CITY     CLOUDY    48  42  80 W17G24    29.67R
NEBRASKA CITY  CLOUDY    46  46 100 NW9       29.64S
PLATTSMOUTH    CLOUDY    45  44  98 SW5       29.65R
$$

NEZ044-045-051>053-067-280800-
OMAHA AREA

CITY           SKY/WX    TMP DP  RH WIND       PRES   REMARKS
OMAHA EPPLEY   CLOUDY    47  44  90 S3        29.64R
BLAIR          DRIZZLE   46  45  96 S7        29.62R
FREMONT        CLOUDY    46  45  97 NW13      29.65R
MILLARD        CLOUDY    47  43  87 W5        29.65R
OFFUTT AFB     CLOUDY    46  45  95 SW5       29.64R
PLATTSMOUTH    CLOUDY    45  44  98 SW5       29.65R
WAHOO          CLOUDY    48  45  90 NW10G18   29.66R
$$




USA.gov is the U.S. government's official web portal to all federal, state and local government web resources and services.